EN

Hourly Weather Lac de Gras

Today, 5 August, Thursday

Time Temperature Precipitation Wind Pressure Humidity
00:00 +6°C° 0 mm 2 mps 723 mmHg 70%
01:00 +6°C° 0 mm 2 mps 723 mmHg 70%
02:00 +6°C° 0 mm 2 mps 723 mmHg 69%
03:00 +6°C° 0 mm 2 mps 723 mmHg 69%
04:00 +6°C° 0 mm 2 mps 723 mmHg 68%
05:00 +6°C° 0 mm 2 mps 723 mmHg 68%
06:00 +7°C° 0 mm 2 mps 723 mmHg 67%
07:00 +7°C° 0 mm 2 mps 723 mmHg 66%
08:00 +8°C° 0 mm 2 mps 723 mmHg 65%
09:00 +9°C° 0 mm 1 mps 723 mmHg 64%
10:00 +10°C° 0 mm 1 mps 722 mmHg 63%
11:00 +10°C° 0 mm 1 mps 722 mmHg 61%
12:00 +12°C° 0 mm 1 mps 722 mmHg 58%
13:00 +13°C° 0 mm 1 mps 722 mmHg 55%
14:00 +14°C° 0 mm 1 mps 722 mmHg 52%
15:00 +14°C° 0 mm 2 mps 721 mmHg 51%
16:00 +15°C° 0 mm 2 mps 721 mmHg 50%
17:00 +15°C° 0 mm 2 mps 720 mmHg 49%
18:00 +15°C° 0 mm 2 mps 720 mmHg 51%
19:00 +14°C° 0 mm 2 mps 720 mmHg 53%
20:00 +13°C° 0 mm 3 mps 720 mmHg 55%
21:00 +12°C° 0 mm 3 mps 719 mmHg 58%
22:00 +12°C° 0 mm 4 mps 719 mmHg 60%
23:00 +11°C° 0 mm 4 mps 719 mmHg 63%

Tomorrow, 6 August, Friday

Time Temperature Precipitation Wind Pressure Humidity
00:00 +10°C° 0 mm 4 mps 719 mmHg 66%
01:00 +8°C° 0 mm 5 mps 719 mmHg 69%
02:00 +7°C° 0 mm 5 mps 719 mmHg 72%
03:00 +7°C° 0 mm 4 mps 719 mmHg 72%
04:00 +7°C° 0 mm 4 mps 719 mmHg 72%
05:00 +8°C° 0 mm 3 mps 719 mmHg 72%
06:00 +8°C° 0 mm 4 mps 718 mmHg 69%
07:00 +10°C° 0 mm 4 mps 718 mmHg 65%
08:00 +11°C° 0 mm 4 mps 718 mmHg 62%
09:00 +12°C° 0 mm 4 mps 718 mmHg 60%
10:00 +13°C° 0 mm 4 mps 717 mmHg 59%
11:00 +14°C° 0 mm 4 mps 717 mmHg 57%
12:00 +14°C° 0 mm 4 mps 717 mmHg 56%
13:00 +15°C° 0 mm 5 mps 717 mmHg 55%
14:00 +16°C° 0 mm 5 mps 717 mmHg 54%
15:00 +17°C° 0 mm 4 mps 717 mmHg 53%
16:00 +18°C° 0 mm 4 mps 716 mmHg 52%
17:00 +19°C° 0 mm 3 mps 716 mmHg 51%
18:00 +18°C° 0 mm 3 mps 716 mmHg 54%
19:00 +18°C° 0 mm 3 mps 716 mmHg 56%
20:00 +17°C° 0 mm 3 mps 716 mmHg 58%
21:00 +16°C° 0 mm 3 mps 715 mmHg 60%
22:00 +16°C° 0 mm 3 mps 715 mmHg 61%
23:00 +16°C° 0 mm 3 mps 715 mmHg 63%

Day after tomorrow, 7 August, Saturday

Time Temperature Precipitation Wind Pressure Humidity
00:00 +14°C° 0 mm 3 mps 715 mmHg 64%
01:00 +14°C° 0 mm 3 mps 715 mmHg 65%
02:00 +14°C° 0 mm 4 mps 715 mmHg 66%
03:00 +13°C° 0 mm 3 mps 715 mmHg 67%
04:00 +13°C° 0 mm 3 mps 715 mmHg 69%
05:00 +13°C° 0 mm 3 mps 715 mmHg 71%
06:00 +13°C° 0 mm 4 mps 715 mmHg 70%
07:00 +13°C° 0 mm 4 mps 715 mmHg 70%
08:00 +13°C° 0 mm 5 mps 715 mmHg 70%
09:00 +14°C° 0 mm 5 mps 715 mmHg 65%
10:00 +15°C° 0 mm 5 mps 715 mmHg 61%
11:00 +17°C° 0 mm 4 mps 715 mmHg 57%
12:00 +16°C° 0 mm 5 mps 715 mmHg 54%
13:00 +16°C° 0 mm 5 mps 715 mmHg 50%
14:00 +16°C° 0 mm 6 mps 716 mmHg 47%
15:00 +16°C° 0 mm 6 mps 716 mmHg 47%
16:00 +15°C° 0 mm 6 mps 716 mmHg 46%
17:00 +14°C° 0 mm 6 mps 716 mmHg 46%
18:00 +11°C° 0 mm 7 mps 716 mmHg 47%
19:00 +10°C° 0 mm 7 mps 717 mmHg 47%
20:00 +9°C° 0 mm 8 mps 717 mmHg 48%
21:00 +6°C° 0 mm 8 mps 717 mmHg 55%
22:00 +4°C° 0 mm 7 mps 718 mmHg 63%
23:00 +2°C° 0 mm 7 mps 718 mmHg 71%

8 August, Sunday

Time Temperature Precipitation Wind Pressure Humidity
00:00 +2°C° 0 mm 7 mps 718 mmHg 71%
01:00 +2°C° 0 mm 6 mps 718 mmHg 71%
02:00 +2°C° 0 mm 6 mps 719 mmHg 71%
03:00 +2°C° 0 mm 6 mps 719 mmHg 69%
04:00 +2°C° 0 mm 6 mps 719 mmHg 68%
05:00 +3°C° 0 mm 5 mps 719 mmHg 66%
06:00 +3°C° 0 mm 5 mps 720 mmHg 65%
07:00 +4°C° 0 mm 4 mps 720 mmHg 65%
08:00 +4°C° 0 mm 3 mps 720 mmHg 64%
09:00 +5°C° 0 mm 3 mps 720 mmHg 62%
10:00 +5°C° 0 mm 3 mps 721 mmHg 60%
11:00 +7°C° 0 mm 2 mps 721 mmHg 57%
12:00 +8°C° 0 mm 2 mps 721 mmHg 55%
13:00 +8°C° 0 mm 2 mps 721 mmHg 52%
14:00 +9°C° 0 mm 2 mps 721 mmHg 50%
15:00 +10°C° 0 mm 1 mps 721 mmHg 49%
16:00 +10°C° 0 mm 1 mps 721 mmHg 49%
17:00 +10°C° 0 mm 1 mps 721 mmHg 48%
18:00 +9°C° 0 mm 2 mps 720 mmHg 51%
19:00 +9°C° 0 mm 2 mps 720 mmHg 53%
20:00 +8°C° 0 mm 2 mps 720 mmHg 56%
21:00 +8°C° 0 mm 2 mps 720 mmHg 57%
22:00 +7°C° 0 mm 3 mps 720 mmHg 59%
23:00 +7°C° 0 mm 3 mps 720 mmHg 60%

9 August, Monday

Time Temperature Precipitation Wind Pressure Humidity
00:00 +7°C° 0 mm 3 mps 720 mmHg 64%
01:00 +7°C° 0 mm 3 mps 720 mmHg 68%
02:00 +7°C° 0 mm 3 mps 720 mmHg 72%
03:00 +5°C° 0.2 mm 3 mps 720 mmHg 78%
04:00 +5°C° 0.2 mm 4 mps 719 mmHg 84%
05:00 +5°C° 0.2 mm 4 mps 719 mmHg 90%
06:00 +5°C° 0.1 mm 4 mps 719 mmHg 88%
07:00 +5°C° 0.1 mm 4 mps 718 mmHg 87%
08:00 +5°C° 0.1 mm 4 mps 718 mmHg 85%
09:00 +6°C° 0 mm 5 mps 717 mmHg 84%
10:00 +6°C° 0 mm 5 mps 717 mmHg 82%
11:00 +7°C° 0 mm 5 mps 716 mmHg 80%
12:00 +7°C° 0 mm 5 mps 715 mmHg 78%
13:00 +8°C° 0 mm 5 mps 715 mmHg 76%
14:00 +8°C° 0 mm 5 mps 714 mmHg 74%
15:00 +8°C° 1 mm 4 mps 713 mmHg 81%
16:00 +7°C° 1 mm 4 mps 713 mmHg 88%
17:00 +6°C° 1 mm 4 mps 712 mmHg 95%
18:00 +6°C° 0.7 mm 4 mps 711 mmHg 95%
19:00 +6°C° 0.7 mm 4 mps 710 mmHg 96%
20:00 +6°C° 0.7 mm 5 mps 709 mmHg 97%
21:00 +6°C° 0.6 mm 5 mps 708 mmHg 97%
22:00 +6°C° 0.6 mm 5 mps 707 mmHg 97%
23:00 +5°C° 0.6 mm 6 mps 707 mmHg 98%

10 August, Tuesday

Time Temperature Precipitation Wind Pressure Humidity
00:00 +5°C° 1.5 mm 6 mps 706 mmHg 97%
01:00 +5°C° 1.5 mm 7 mps 706 mmHg 97%
02:00 +5°C° 1.5 mm 7 mps 705 mmHg 97%
03:00 +5°C° 1.7 mm 8 mps 705 mmHg 96%
04:00 +3°C° 1.7 mm 9 mps 706 mmHg 94%
05:00 +3°C° 1.7 mm 9 mps 706 mmHg 93%
06:00 +3°C° 0.3 mm 10 mps 707 mmHg 90%
07:00 +3°C° 0.3 mm 10 mps 708 mmHg 87%
08:00 +5°C° 0.3 mm 10 mps 709 mmHg 85%
09:00 +5°C° 0 mm 9 mps 710 mmHg 80%
10:00 +6°C° 0 mm 9 mps 711 mmHg 75%
11:00 +7°C° 0 mm 9 mps 712 mmHg 70%
12:00 +8°C° 0 mm 9 mps 712 mmHg 61%
13:00 +11°C° 0 mm 8 mps 713 mmHg 52%
14:00 +12°C° 0 mm 8 mps 714 mmHg 43%
15:00 +12°C° 0 mm 8 mps 714 mmHg 41%
16:00 +12°C° 0 mm 7 mps 715 mmHg 40%
17:00 +12°C° 0 mm 7 mps 715 mmHg 38%
18:00 +12°C° 0 mm 5 mps 716 mmHg 43%
19:00 +11°C° 0 mm 4 mps 716 mmHg 47%
20:00 +10°C° 0 mm 3 mps 716 mmHg 52%
21:00 +8°C° 0 mm 3 mps 716 mmHg 56%
22:00 +7°C° 0 mm 2 mps 716 mmHg 60%
23:00 +6°C° 0 mm 2 mps 716 mmHg 64%
Show more